RH
36 47 56 52 45 36 27 24 22 21 20 20 21 20 21 24 28 30 28 25 21 26 29 28 31 32 42 60 74 82 88 90 85 91 78 32 10 15 16 19 19 32 62 62 59 78 79 77 78 76 72 61 63 65 69 70 67 77 83 80 76 73 66 55 53 47 43 52 61 63 56 57 64 61 56 55 57 57 58 58 56 56 55 56 60 64 70 75
35 44 43 39 37 30 23 21 19 18 19 20 22 22 24 29 30 31 31 28 24 23 28 31 31 38 45 50 73 88 88 91 91 87 56 22 23 25 18 18 22 40 68 77 71 70 71 73 72 69 63 56 56 59 66 67 65 75 77 76 71 65 62 54 51 48 43 48 57 60 55 54 57 60 56 58 62 59 62 64 60 64 65 63 66 68 72 75
29 32 31 34 34 27 23 19 17 17 18 20 24 26 28 31 27 27 29 27 26 23 25 31 32 41 45 47 69 83 87 89 76 61 41 33 40 37 29 19 23 47 64 71 69 63 67 71 68 60 54 51 50 56 65 65 66 68 68 72 66 59 60 54 51 52 46 46 54 57 55 54 54 56 55 58 62 60 63 65 63 68 69 67 68 68 72 73
24 26 28 32 30 27 24 18 16 15 16 20 26 30 30 30 25 23 25 25 24 23 24 26 33 40 42 48 61 76 91 76 42 29 35 40 38 40 37 22 25 44 60 74 70 60 67 68 61 52 47 47 50 59 64 62 65 65 65 68 60 57 59 53 51 51 47 46 50 53 55 55 54 54 54 57 63 62 60 58 59 64 66 67 67 66 69 69
22 25 26 29 30 28 22 17 16 14 15 21 28 31 29 27 23 21 20 21 20 21 24 26 34 38 41 47 57 80 77 40 20 23 37 42 32 37 36 24 25 37 64 79 63 56 65 62 52 45 41 45 53 59 61 58 60 64 65 63 57 56 57 54 49 48 46 46 49 52 54 53 53 55 54 55 57 57 54 51 54 58 62 64 64 64 65 65
21 23 25 29 29 27 22 17 16 14 15 22 28 29 27 25 22 21 18 16 18 19 23 29 35 36 43 49 56 74 49 12 21 25 32 38 30 35 32 26 27 39 67 69 52 53 58 52 43 38 37 43 53 53 53 56 59 65 63 59 58 56 59 57 51 49 46 45 49 50 49 49 55 58 54 52 49 47 48 49 52 57 59 61 61 62 62 62
19 22 25 27 28 28 22 17 17 15 15 22 28 26 25 23 21 21 17 15 16 17 26 34 36 36 44 53 56 58 34 15 26 24 24 30 33 37 32 31 33 46 65 57 47 48 47 45 35 30 33 37 47 46 46 53 59 66 63 57 56 53 56 53 49 47 42 41 42 43 46 50 56 56 53 53 47 45 49 50 53 57 59 61 61 61 61 61
18 21 24 27 28 27 21 17 18 16 17 23 25 23 22 22 20 20 17 16 16 19 32 36 36 38 44 56 54 40 27 23 27 25 22 28 39 42 44 47 41 48 58 49 44 42 40 40 30 27 29 28 38 43 43 49 57 65 63 55 52 50 49 45 42 41 37 37 37 41 47 48 50 50 53 53 46 47 50 52 55 58 61 62 62 62 61 61
16 19 22 26 28 28 22 18 18 18 20 23 24 22 20 20 19 19 17 15 18 27 36 37 39 40 45 58 49 21 17 26 27 24 25 37 44 48 62 54 41 50 51 43 42 38 37 35 29 27 24 24 33 37 38 43 47 54 56 53 51 48 44 41 39 38 35 34 36 42 45 44 45 47 52 50 46 50 52 55 57 59 63 64 63 62 61 61
15 17 21 25 28 28 24 18 19 22 22 22 22 21 20 19 19 18 16 18 26 35 38 38 41 43 49 54 37 13 16 29 29 23 28 47 47 51 69 51 38 51 45 39 38 34 34 30 28 27 23 25 30 33 36 38 38 42 46 47 48 46 42 41 39 37 35 33 34 39 40 40 42 46 49 47 47 51 54 58 58 60 63 62 62 62 62 61
14 16 20 24 27 27 23 19 20 24 23 21 22 23 20 18 18 16 18 27 37 40 39 40 42 47 55 49 30 15 19 27 28 23 28 48 52 49 60 48 39 49 44 38 34 31 30 25 26 25 20 23 30 34 34 35 34 36 40 41 41 39 37 35 34 33 32 32 32 34 37 37 42 47 44 44 49 51 55 60 59 60 61 60 61 61 64 62
15 15 19 23 26 26 21 19 21 22 19 18 21 22 19 18 17 17 27 40 42 40 41 44 45 53 59 49 35 23 23 30 27 22 22 38 50 46 51 47 36 42 44 38 33 31 27 25 25 19 17 24 29 30 28 31 32 32 36 39 38 33 32 29 27 29 30 31 30 32 39 40 43 44 39 44 50 51 56 60 60 60 59 60 60 61 64 63
15 16 19 23 26 25 19 19 20 18 16 17 19 19 19 18 17 24 40 44 39 41 46 51 57 65 60 41 31 26 28 36 30 22 19 25 40 47 55 52 32 32 40 37 35 33 28 26 23 17 19 25 25 21 20 26 31 32 33 36 38 35 32 28 25 27 29 30 29 33 42 44 41 37 37 45 50 52 57 60 60 59 59 60 59 61 63 62
16 17 20 24 27 25 20 19 18 17 17 17 18 20 19 17 21 39 48 39 38 49 58 64 69 71 61 36 24 24 27 32 28 22 17 21 38 52 58 49 29 24 31 32 33 33 29 26 24 19 19 23 23 19 19 23 28 30 29 31 35 38 33 27 27 29 30 30 28 32 41 41 35 33 39 46 50 53 58 59 59 59 60 60 59 60 61 61
17 18 21 25 28 25 21 19 17 17 18 19 19 20 19 17 30 49 43 35 47 63 70 72 75 71 54 34 23 21 22 23 21 18 16 18 28 47 56 45 31 26 26 25 26 30 28 25 25 21 18 20 21 21 21 23 26 26 25 26 29 34 31 25 27 29 30 30 29 32 38 36 30 33 43 47 49 52 55 58 59 60 60 60 59 59 60 60
17 19 23 26 27 25 21 18 17 19 20 21 21 20 19 21 40 49 36 41 62 74 78 73 80 78 44 21 18 18 18 16 16 15 16 16 14 34 54 45 35 31 27 24 22 25 24 23 25 21 19 20 19 23 24 22 25 26 24 24 28 31 28 24 26 26 27 30 32 32 35 34 29 34 45 48 49 50 54 58 59 60 60 60 60 58 59 60
17 20 24 28 29 24 20 18 18 20 22 23 22 21 23 29 47 51 35 46 70 79 81 77 87 84 40 14 16 16 14 13 16 14 14 15 13 34 51 42 35 30 26 24 20 20 21 23 24 23 24 21 19 23 25 24 26 29 27 25 28 30 25 26 27 24 24 28 33 33 33 32 30 37 47 49 49 50 54 57 58 60 60 61 60 58 59 60
17 21 27 31 31 24 20 19 18 21 23 25 24 22 27 36 52 56 35 40 67 74 70 68 72 60 27 13 15 14 14 14 15 13 14 16 17 37 47 38 33 26 22 23 20 20 21 21 21 22 24 24 23 22 23 25 23 27 31 28 28 29 27 28 28 25 24 27 30 34 35 32 30 40 48 48 49 50 52 55 57 58 60 62 62 60 59 60
17 22 29 32 31 24 20 19 19 21 23 25 27 22 27 35 41 45 32 26 41 41 34 35 34 25 15 13 14 13 14 14 14 12 16 19 22 38 43 35 31 24 22 23 21 21 20 21 22 22 23 23 23 20 19 23 23 25 29 29 28 27 26 27 26 23 23 27 28 31 34 32 30 39 48 49 49 50 51 54 57 58 60 62 63 61 60 61
17 22 31 35 31 24 19 20 19 21 24 26 27 24 29 36 30 29 28 21 20 19 17 19 19 18 16 14 14 14 13 14 14 12 14 19 26 36 37 32 28 23 22 21 22 22 19 23 24 22 20 19 21 21 19 23 26 26 27 30 30 27 26 25 25 21 19 24 25 26 30 29 28 34 43 48 50 51 52 56 59 59 60 62 62 61 61 61
16 20 32 35 30 25 20 22 22 21 25 27 29 29 33 39 34 29 30 23 20 21 19 18 19 19 17 15 15 15 15 16 14 12 13 17 27 35 35 32 29 26 22 19 22 22 19 23 22 19 17 16 19 20 20 21 24 27 28 29 30 29 26 23 23 20 19 24 24 24 27 28 27 29 37 46 52 52 51 55 59 58 59 60 61 61 60 59
15 18 30 33 27 25 21 23 26 22 23 27 29 31 32 37 38 35 30 24 20 22 21 20 21 19 16 16 15 15 17 17 14 12 12 16 24 29 31 35 32 28 24 20 23 24 24 23 19 17 16 15 17 18 21 21 21 25 27 29 31 29 26 25 22 18 18 23 24 23 25 25 24 26 35 44 50 51 48 50 54 57 59 59 60 61 60 60
14 16 28 33 27 24 22 23 27 24 24 29 30 32 34 38 43 37 28 24 21 21 21 20 20 17 13 14 14 15 16 18 17 13 12 15 19 19 24 34 35 32 28 22 21 24 25 22 17 16 15 14 16 17 19 20 20 22 24 29 31 28 28 27 23 19 18 20 21 22 23 22 22 27 35 41 45 47 46 47 49 52 57 57 56 57 59 60
14 14 24 34 30 24 22 22 27 28 27 31 31 34 38 43 49 38 25 26 25 21 21 20 21 17 13 13 14 14 16 18 18 14 13 15 17 16 18 28 34 34 31 24 21 21 21 20 18 17 16 14 15 17 19 19 19 18 20 26 29 28 28 26 23 20 18 18 18 20 25 25 22 27 33 38 43 45 46 48 50 52 53 54 54 55 57 57
14 15 21 33 34 26 22 22 29 32 31 31 32 36 39 45 51 39 26 27 24 21 20 19 20 16 12 14 14 14 16 18 17 14 15 16 18 18 15 21 29 33 32 28 25 23 20 21 20 17 17 15 15 16 18 18 18 19 19 21 24 27 28 27 25 24 25 26 20 19 31 32 24 23 26 35 46 48 47 49 51 53 54 54 55 56 55 54
15 16 20 32 38 29 23 26 32 34 32 30 32 36 39 46 52 40 28 24 19 18 18 16 16 14 13 15 14 15 17 18 16 15 16 17 19 19 16 17 23 29 30 28 28 27 22 21 21 19 18 17 16 16 17 18 18 20 20 19 23 26 28 29 27 28 31 30 22 20 30 34 28 24 23 33 46 49 49 51 50 51 54 54 54 54 54 53
17 20 22 31 41 36 29 33 36 35 33 32 35 37 37 45 52 42 27 21 19 18 16 14 14 13 14 15 15 16 18 18 15 14 16 17 19 19 18 17 18 23 25 27 32 30 24 24 24 22 20 19 18 16 17 18 18 20 21 21 24 26 28 29 28 30 29 27 25 21 23 31 30 26 25 31 43 48 50 51 49 48 51 52 51 51 52 52
21 23 26 33 43 44 39 40 40 36 36 38 38 36 35 43 48 36 21 18 20 18 15 15 14 13 14 15 16 17 18 19 18 17 16 18 21 20 18 17 17 19 20 27 34 29 24 26 26 24 24 23 20 16 16 17 17 18 21 22 23 24 26 26 27 30 27 29 35 27 22 31 31 25 27 32 38 46 51 52 49 48 49 49 49 49 49 50
27 27 33 38 42 44 43 43 42 38 37 38 36 33 35 41 37 25 19 19 20 17 15 15 14 14 16 16 17 20 19 19 21 19 17 20 22 20 20 21 20 19 16 20 27 25 21 22 23 23 24 23 21 17 15 17 16 16 21 22 21 23 24 25 27 28 29 36 42 32 25 31 33 24 25 33 37 40 46 48 47 46 47 48 47 47 47 49
33 30 37 42 42 43 42 40 39 37 35 35 32 31 34 34 27 21 22 21 19 18 15 16 17 17 19 19 19 21 20 20 21 19 20 23 22 20 22 23 22 22 18 15 18 19 17 15 19 22 22 21 20 18 16 16 16 17 20 22 23 25 25 27 27 27 35 42 39 31 25 29 35 27 21 29 34 32 36 42 45 45 46 47 46 45 45 47
36 31 38 43 42 44 41 36 36 34 33 32 29 27 29 28 23 23 24 20 19 19 17 18 20 19 21 22 21 21 21 21 21 23 26 26 25 25 25 25 26 24 21 18 17 18 17 16 19 21 19 18 19 21 19 16 16 18 19 20 27 30 29 32 33 33 43 44 32 27 25 27 35 31 20 22 25 25 28 33 39 43 44 45 45 43 43 45
37 32 39 42 40 42 41 38 37 32 31 31 27 24 24 24 24 25 24 22 21 20 19 21 21 21 23 24 23 23 23 23 23 26 30 31 31 33 32 33 33 29 26 25 23 22 20 17 18 19 19 20 21 22 23 21 19 19 19 22 31 37 40 42 40 40 43 39 28 23 24 27 31 27 20 20 21 20 21 23 30 37 40 42 44 43 42 43
37 33 39 41 39 40 41 41 39 34 32 30 26 24 23 25 30 29 24 21 22 20 19 21 22 22 24 24 24 24 24 25 25 28 31 32 34 36 35 35 34 31 32 32 29 25 22 19 17 17 19 23 23 22 26 26 24 23 22 25 32 38 46 49 43 41 41 35 26 21 24 28 26 21 18 18 17 17 18 19 23 30 35 39 41 41 41 42
35 34 40 40 39 40 41 43 41 38 36 29 23 23 24 28 32 28 23 21 21 19 19 21 23 23 24 25 25 24 24 25 26 30 33 34 37 38 38 37 34 31 32 33 32 30 29 27 23 21 22 23 23 25 28 26 25 25 22 24 30 33 40 43 40 40 39 33 27 24 27 28 24 21 18 15 14 14 16 16 20 26 31 34 37 37 39 41
35 35 40 40 40 40 41 41 40 41 38 27 23 27 29 32 31 26 24 24 20 19 20 21 23 25 27 26 25 24 25 25 25 29 34 37 41 42 43 42 36 33 35 35 34 34 35 31 27 25 23 24 26 27 27 26 25 24 21 26 31 29 30 34 34 33 33 31 30 28 28 25 20 20 17 14 15 14 14 15 17 23 26 30 33 35 37 39
35 35 40 40 40 39 38 39 38 39 34 24 26 33 32 31 30 25 26 25 20 19 21 22 24 27 29 29 27 24 25 26 25 27 31 37 42 44 46 45 37 34 38 40 36 36 37 32 25 24 23 26 29 26 24 26 26 25 25 28 28 23 26 33 35 33 32 35 34 28 26 22 19 18 14 13 15 14 15 15 15 18 24 29 31 32 34 36
39 41 46 43 41 38 36 36 35 34 32 28 34 39 34 30 29 27 28 26 20 19 22 25 27 29 31 31 29 26 25 26 27 26 26 32 40 43 45 45 38 33 36 41 38 33 35 34 26 25 28 27 26 24 22 22 24 27 28 25 23 23 25 31 38 39 37 38 35 27 24 23 21 21 16 13 14 14 15 16 14 17 23 27 28 30 33 34
55 55 52 43 41 38 33 31 29 30 33 36 42 44 38 33 30 30 32 29 23 20 23 27 29 30 32 33 31 30 28 27 28 29 26 29 38 42 42 43 40 35 33 38 38 31 33 37 29 29 34 28 22 23 23 21 21 24 24 21 24 30 31 33 40 43 42 42 37 29 26 22 21 20 16 14 14 13 14 17 17 17 21 24 24 28 33 33
63 54 45 40 40 37 32 29 27 31 35 40 47 47 42 38 35 34 35 30 23 22 26 28 29 31 32 33 33 32 31 30 31 32 29 29 35 40 41 40 39 37 33 35 39 32 32 40 36 32 31 27 23 23 24 23 21 22 22 21 23 28 30 32 35 36 39 42 39 34 29 24 20 17 14 14 14 12 13 18 19 18 20 24 24 26 30 33
72 51 38 40 41 36 31 28 33 41 43 46 51 51 49 46 39 35 35 31 24 24 27 29 31 33 33 34 34 32 34 34 33 34 32 32 35 39 43 42 39 38 35 34 38 36 35 43 44 35 28 26 26 26 27 27 26 25 26 26 26 26 26 28 30 28 31 39 40 37 34 26 19 16 13 13 14 13 13 17 21 19 18 22 24 25 29 33
75 49 40 43 40 35 31 36 49 53 51 54 56 54 54 49 42 39 38 33 28 26 27 29 32 34 34 36 35 35 36 34 34 37 34 34 37 38 42 43 40 39 38 35 37 39 40 46 49 42 34 30 27 27 29 29 29 29 28 28 29 29 29 33 36 30 26 31 35 36 36 27 17 17 16 10 11 14 13 15 18 18 17 21 24 25 29 33
66 48 45 45 43 37 34 46 60 60 56 59 59 58 56 50 45 44 42 39 36 33 31 31 34 35 36 37 36 37 38 35 35 37 36 37 38 38 41 43 41 39 39 39 38 40 44 51 57 52 41 34 29 28 29 29 30 31 29 29 30 31 32 36 40 36 29 29 29 30 36 28 17 19 19 13 13 12 13 15 16 15 16 20 24 25 28 33
71 63 50 44 44 38 39 52 61 60 60 59 56 55 52 50 50 47 45 46 45 41 37 37 38 38 40 40 37 37 38 36 35 36 40 43 40 39 41 42 41 38 38 42 42 43 48 54 59 56 43 33 28 28 30 30 31 32 32 31 31 32 33 34 37 38 35 32 29 33 39 30 19 22 20 15 17 14 11 13 14 14 16 19 24 26 28 34
82 77 62 51 43 39 48 60 63 64 66 61 57 55 50 50 53 52 52 53 51 48 46 44 42 41 44 44 40 39 39 40 39 38 42 45 43 45 45 42 42 40 38 42 45 48 54 57 60 59 48 37 33 35 36 33 31 33 34 34 33 34 35 33 36 40 39 32 28 34 38 28 22 29 24 15 16 16 12 11 11 13 16 17 21 26 30 37
78 72 65 55 46 47 57 63 63 65 69 68 64 61 57 55 54 54 55 54 52 50 50 49 45 44 49 47 43 43 41 40 42 42 44 45 43 45 47 44 42 41 40 43 47 52 58 61 64 64 54 43 42 46 47 42 36 35 35 36 36 36 36 36 41 44 41 35 29 29 30 23 21 28 26 18 16 17 16 15 12 12 14 15 19 25 30 37
69 66 66 57 49 53 59 61 63 66 70 73 69 64 64 63 58 54 54 56 55 51 50 50 47 49 56 55 54 56 49 41 42 44 46 45 40 41 48 50 47 43 44 47 49 54 60 61 63 68 63 53 52 55 52 46 42 39 38 36 36 37 36 39 44 45 43 40 32 28 28 23 18 21 23 19 17 17 18 18 16 16 18 18 22 27 29 33
69 71 76 72 62 59 59 60 65 69 69 72 71 67 66 64 62 59 56 57 58 54 52 54 54 60 67 68 70 67 57 51 50 49 48 45 40 40 45 49 48 46 47 49 49 53 63 64 59 63 64 56 53 53 47 44 45 43 41 38 36 37 39 41 44 44 46 46 37 36 41 35 21 18 24 28 29 28 23 18 18 21 22 19 21 25 26 28
72 70 72 74 72 70 69 67 69 69 66 67 69 67 65 63 66 69 64 59 59 57 57 59 61 65 70 75 78 74 68 65 60 55 53 51 48 46 46 45 43 43 45 50 51 51 60 63 54 53 56 50 47 47 42 44 45 41 41 41 38 38 40 44 45 42 48 55 49 46 53 48 28 20 30 43 49 51 44 35 32 34 34 32 30 26 20 20
73 72 69 69 72 76 75 72 73 70 65 67 69 68 68 66 68 71 66 64 66 63 62 66 66 65 69 76 81 82 78 72 67 63 60 57 56 57 58 53 46 44 47 53 55 52 55 58 53 52 54 49 46 45 42 44 44 42 42 40 37 39 39 39 42 44 50 56 52 48 53 49 33 31 45 57 61 65 63 57 55 56 58 59 53 41 28 19
82 84 82 78 75 74 73 72 73 71 67 69 73 71 68 68 71 72 66 67 73 71 66 69 69 67 70 77 83 86 79 72 72 70 64 64 63 61 64 60 51 53 59 59 59 56 56 55 51 54 61 56 47 45 43 43 44 44 42 38 36 38 38 39 51 63 67 62 56 54 55 50 43 48 63 67 67 71 71 68 68 69 70 71 66 56 44 30
91 92 91 91 84 75 73 70 69 72 71 69 73 73 69 69 74 75 69 67 73 75 70 69 71 70 71 74 78 78 70 65 68 63 57 61 61 56 59 57 51 58 66 65 62 60 60 57 51 56 67 61 50 48 46 43 44 45 43 42 38 39 45 53 64 78 83 80 74 65 56 57 62 65 70 70 68 71 74 73 73 72 71 72 72 68 61 50
93 93 92 95 90 79 74 70 69 75 77 72 72 73 72 72 72 75 77 73 69 68 67 67 71 73 73 73 70 65 58 57 58 54 51 54 53 51 54 53 51 56 62 65 65 63 61 60 54 57 66 61 51 50 50 48 50 50 43 37 35 41 54 64 71 78 82 82 81 73 65 69 75 73 73 75 72 72 75 75 74 75 74 73 73 72 69 63
Wind_Speed
32 31 29 29 28 27 27 26 25 24 24 22 20 18 17 17 17 17 15 12 12 13 14 15 15 15 14 12 10 9 8 8 7 5 11 18 18 15 11 6 16 21 19 23 29 24 18 15 13 15 13 7 4 4 7 6 3 4 3 4 4 3 3 1 1 2 2 2 8 10 10 9 10 8 6 7 8 10 9 5 7 6 6 10 16 25 31 31
33 32 31 31 30 29 28 27 26 25 24 22 20 19 18 18 18 17 16 13 12 12 13 14 14 14 12 10 9 7 6 6 7 10 12 14 15 12 15 12 17 26 25 26 30 27 20 16 16 16 10 6 4 5 7 6 5 6 3 4 5 3 2 2 3 3 3 2 8 10 9 7 9 11 9 8 9 11 9 7 8 10 11 15 21 29 31 31
34 33 33 32 32 30 29 28 26 25 24 22 20 20 19 19 18 17 16 14 12 11 11 13 13 13 11 9 7 6 4 4 5 9 5 13 15 12 14 16 19 28 28 27 29 27 22 20 22 17 9 6 4 6 7 6 7 6 5 5 5 4 4 4 5 5 3 1 7 10 8 6 8 10 8 8 11 11 9 9 10 11 14 16 22 28 30 31
35 34 34 33 33 31 29 28 26 25 23 21 21 21 19 19 18 17 16 14 12 11 11 12 12 12 9 7 5 4 4 4 1 3 9 16 17 12 12 18 20 29 26 22 20 17 20 22 20 14 8 6 5 6 8 8 6 6 7 5 2 2 4 2 2 5 4 2 5 8 9 8 8 8 8 10 11 9 10 12 13 15 18 20 22 26 30 30
35 35 35 34 33 31 30 28 26 25 22 20 20 21 20 19 18 17 15 13 13 11 11 10 10 10 7 5 3 2 3 3 2 9 17 18 13 8 12 21 22 30 25 19 16 14 20 21 15 9 6 5 7 7 8 11 7 5 8 7 4 2 3 1 1 2 2 1 4 7 9 8 8 8 9 13 11 6 8 12 14 18 20 23 25 26 28 28
36 36 36 35 34 32 30 28 26 24 21 19 19 20 20 19 19 18 14 13 14 12 11 8 7 8 5 4 3 2 2 1 5 13 22 16 7 4 12 23 25 31 26 20 17 16 18 16 13 9 5 5 10 8 6 12 9 6 7 8 8 6 6 4 3 4 5 2 4 6 7 7 10 9 10 15 9 1 6 12 15 18 21 25 27 26 26 26
37 37 36 35 34 32 30 28 26 23 20 18 18 20 20 20 20 19 15 13 14 13 9 4 4 5 3 2 2 2 2 4 6 16 25 18 7 1 16 24 27 32 26 21 19 16 16 16 13 9 7 6 9 9 5 10 12 9 8 8 9 8 10 9 7 8 8 6 6 5 7 9 12 9 9 15 7 4 9 15 17 18 22 25 24 24 24 25
38 38 37 36 34 32 30 28 26 23 19 18 17 18 20 21 21 20 16 15 15 12 5 2 3 3 2 2 0 1 2 4 3 18 28 20 9 6 22 24 29 31 25 24 22 18 16 16 14 9 9 7 6 9 6 8 11 12 11 6 6 7 8 8 8 8 8 7 5 6 9 11 13 6 7 14 7 8 13 17 19 19 21 22 22 23 23 23
39 39 38 37 35 32 30 28 26 22 19 18 17 18 20 21 22 20 17 17 14 8 1 3 3 2 1 1 1 3 2 4 3 21 25 16 8 13 25 23 32 29 21 25 22 20 16 14 15 9 8 7 7 10 9 8 8 11 13 7 6 7 7 7 9 9 8 6 3 8 10 11 11 5 6 12 9 12 16 18 20 20 20 20 20 21 22 23
40 39 39 38 36 33 29 27 24 21 19 18 17 18 20 21 23 20 17 16 9 1 2 4 3 1 1 2 1 2 1 2 5 20 20 9 3 16 21 22 35 29 20 21 21 22 15 13 13 6 4 6 7 8 10 10 3 5 11 12 12 12 10 11 12 11 9 7 7 9 9 9 11 7 6 9 12 14 17 18 19 20 20 19 19 19 20 22
40 39 39 38 36 33 29 27 23 20 19 18 18 19 21 22 22 18 15 10 3 4 3 3 1 1 2 2 2 2 3 5 7 16 16 5 3 14 18 23 32 26 22 20 20 24 16 12 13 5 2 5 6 5 8 9 4 3 6 8 12 12 12 12 13 12 8 7 8 10 9 7 10 10 8 10 15 16 18 18 19 19 18 18 19 18 17 18
41 39 39 38 36 32 28 25 22 20 20 20 19 20 23 22 19 15 9 5 5 5 3 1 1 3 3 2 4 3 7 9 5 12 15 5 4 8 12 23 27 19 21 18 18 21 12 13 16 9 4 5 7 3 5 9 7 7 6 8 9 9 11 12 12 10 6 6 6 7 7 6 10 12 10 13 16 16 17 18 18 18 16 17 18 16 14 17
42 40 39 38 35 31 27 24 21 21 21 21 20 23 24 19 14 9 4 6 8 8 3 2 1 5 3 1 3 4 8 7 5 11 15 9 1 5 9 20 23 13 14 12 13 16 10 14 17 10 3 3 6 1 2 7 8 7 7 8 7 7 8 8 9 9 8 7 6 7 5 4 10 13 11 14 17 17 17 17 17 16 14 15 16 14 15 17
43 41 39 38 35 30 26 22 21 22 21 21 22 24 20 13 9 4 5 9 11 7 2 1 4 5 1 3 2 5 9 9 8 12 14 9 2 4 6 17 18 9 10 9 10 12 8 10 11 5 2 2 1 1 2 3 6 7 6 6 6 6 5 3 3 7 9 6 9 9 6 5 9 11 13 15 19 19 16 17 16 15 14 15 15 15 16 17
44 42 40 38 34 29 25 21 21 22 22 22 23 21 15 9 5 4 6 13 10 5 3 4 5 2 2 2 1 6 9 11 12 15 13 5 1 3 9 16 14 9 10 8 10 13 6 7 8 5 4 1 2 3 3 2 3 6 5 6 7 6 7 6 4 7 8 5 10 11 5 5 7 9 15 15 19 20 17 17 17 16 17 16 15 15 15 16
45 42 40 37 33 28 23 20 20 21 23 24 21 16 12 7 4 3 8 13 7 3 2 2 2 1 1 1 5 8 7 11 16 18 13 6 4 3 11 16 12 7 8 7 10 15 7 5 6 4 4 3 5 4 2 3 4 5 6 6 6 7 9 7 4 8 10 5 9 13 6 4 4 8 15 16 19 19 16 17 17 17 17 16 15 14 15 15
45 42 40 37 32 26 21 19 19 21 24 24 17 13 12 5 5 2 9 12 5 1 1 2 1 2 1 4 7 9 11 16 21 18 11 7 3 9 15 13 9 8 7 8 10 13 8 6 4 3 5 5 5 4 5 7 7 5 6 6 5 8 10 6 2 4 10 9 9 12 11 7 2 8 14 17 19 18 15 16 18 16 15 15 14 14 15 16
45 42 39 36 32 25 19 18 18 20 24 24 14 11 15 6 3 1 9 12 3 3 2 3 2 2 1 8 9 11 18 20 18 13 10 7 5 15 15 10 10 11 9 6 8 9 7 6 5 4 6 6 6 8 9 7 7 8 7 6 5 7 10 8 4 1 5 10 11 11 12 11 5 8 13 16 18 18 16 16 16 16 16 15 14 15 16 17
45 43 39 36 31 23 18 17 16 17 23 25 12 5 14 9 1 2 7 10 3 1 2 2 2 1 3 10 10 14 20 15 10 10 10 8 9 13 12 11 12 13 10 7 6 7 6 5 6 7 8 11 11 12 12 3 2 9 8 6 6 7 8 7 5 2 1 6 10 11 11 12 9 9 12 14 17 18 16 14 13 14 14 14 14 14 16 17
45 43 40 35 29 21 16 15 15 15 20 27 16 3 8 10 2 2 6 7 2 1 3 2 1 1 5 8 10 18 16 7 5 10 13 6 10 11 9 10 11 10 8 9 8 6 8 7 8 11 11 12 11 11 11 4 1 3 6 7 8 9 8 6 5 4 3 4 7 9 10 13 11 10 13 14 16 16 14 14 14 14 14 15 16 16 18 18
44 43 39 33 28 20 14 15 16 14 16 25 23 8 4 7 4 3 6 5 1 2 4 4 3 5 8 9 10 13 7 2 4 10 17 9 9 9 6 9 9 8 8 9 8 6 7 8 11 14 9 6 7 9 10 9 8 5 4 6 7 8 8 6 4 3 4 5 6 7 9 12 12 11 11 13 15 16 16 16 16 17 16 14 17 19 18 15
43 42 37 30 25 19 12 14 18 13 14 22 22 11 4 5 5 4 4 4 3 3 4 4 3 4 9 7 5 7 2 3 7 10 19 12 3 2 4 8 7 7 8 9 7 5 8 10 13 11 6 5 6 9 11 13 14 10 5 4 5 5 5 6 6 4 4 5 6 6 8 11 11 10 12 14 15 15 17 18 18 19 18 16 17 18 17 15
43 41 36 28 22 19 10 11 18 14 13 17 15 9 5 8 8 5 4 3 4 3 2 2 1 4 8 3 6 9 2 2 5 9 17 11 3 3 2 7 6 6 9 11 10 8 7 9 11 9 8 10 10 10 13 12 12 11 8 6 5 3 3 6 3 1 3 6 8 6 7 9 8 7 10 15 16 15 16 19 17 17 18 18 18 17 17 18
42 40 36 27 21 18 7 7 16 16 12 9 9 8 11 14 9 3 5 2 3 3 1 2 1 4 7 5 8 9 2 1 3 7 12 10 6 3 2 5 7 5 8 12 12 11 7 2 6 11 11 13 13 12 13 11 9 13 13 11 8 5 6 5 1 3 4 7 8 6 7 8 8 8 9 12 14 14 14 15 14 14 15 14 13 15 16 18
42 40 35 27 20 16 5 3 13 16 11 3 4 13 20 17 5 6 5 1 1 1 1 1 0 3 8 9 10 7 2 1 2 5 7 10 8 3 1 2 6 6 8 12 11 11 9 2 8 14 15 15 15 13 14 12 8 10 15 16 12 8 8 7 6 6 5 6 5 4 8 8 7 11 10 9 12 14 13 14 16 15 13 13 12 15 17 17
42 40 35 26 19 15 5 0 10 16 9 1 9 22 23 15 1 9 3 1 1 1 1 2 2 6 10 10 10 5 3 1 5 7 7 11 8 2 2 2 4 5 8 10 6 6 7 6 8 12 15 16 15 12 13 14 9 8 11 15 15 11 9 10 10 7 5 5 2 3 8 6 4 9 10 10 13 16 15 15 18 16 14 15 14 15 16 17
42 39 35 24 16 14 6 1 9 11 4 6 20 26 21 13 4 9 3 2 1 1 2 3 3 7 10 9 12 3 2 6 8 6 10 14 7 2 4 3 4 5 6 6 5 4 7 10 10 11 12 13 13 12 13 15 11 8 6 10 13 13 13 13 11 9 6 6 6 7 8 7 6 6 6 10 13 16 16 17 18 16 16 18 17 16 17 18
41 39 34 20 11 9 6 4 7 6 7 18 25 24 17 5 8 7 2 2 0 1 2 3 2 7 8 7 11 6 1 8 5 5 15 15 6 1 4 2 3 6 6 7 8 4 8 12 12 13 11 9 10 11 13 17 13 7 5 9 11 13 15 13 11 9 7 6 9 9 7 6 8 5 3 8 13 14 16 18 18 17 18 19 18 19 19 19
40 39 31 17 8 7 9 7 4 9 20 25 25 21 8 5 8 2 1 2 0 3 1 2 1 6 8 5 9 9 3 5 3 7 14 10 6 2 2 2 4 5 5 8 9 3 4 8 11 14 12 9 10 11 12 16 13 6 6 7 8 11 14 12 11 9 8 9 11 10 8 7 9 6 6 7 10 13 13 15 16 17 18 19 18 19 19 18
40 37 25 13 7 10 14 9 8 18 26 24 22 13 2 7 3 2 2 2 2 3 1 3 2 4 7 4 6 9 6 5 5 7 7 5 7 7 2 2 5 5 5 5 7 5 3 4 7 11 11 9 10 11 12 16 14 7 7 7 5 6 8 9 9 7 8 11 13 13 11 8 10 8 8 8 7 9 10 11 13 15 17 18 17 17 17 16
40 34 18 9 8 11 12 10 17 26 24 23 19 4 6 1 2 3 2 1 1 2 1 4 4 3 7 8 6 9 7 6 8 8 7 5 6 10 5 1 4 3 4 6 5 2 4 7 5 4 8 10 11 11 11 15 15 10 9 9 5 4 4 5 5 6 10 10 10 14 13 11 12 8 8 8 7 9 11 12 14 16 18 17 17 17 17 16
39 30 11 7 11 10 9 14 24 26 22 20 12 1 3 1 2 2 1 1 1 2 2 4 6 4 4 6 7 9 6 6 10 8 7 6 6 9 8 5 5 2 4 4 3 1 5 8 5 3 5 6 9 11 9 11 14 11 10 9 8 6 5 6 7 6 10 8 4 9 11 12 13 9 8 8 7 11 13 12 14 17 18 17 18 18 16 16
37 26 5 7 14 11 15 24 25 21 20 15 4 2 0 2 2 1 3 2 1 3 2 2 5 6 3 3 7 8 4 5 10 8 6 5 5 7 7 10 8 2 1 1 1 3 6 5 5 8 4 2 4 9 7 8 12 12 11 10 10 8 7 9 8 7 8 7 4 6 7 10 11 8 11 14 13 13 13 12 12 15 17 17 18 18 17 17
35 20 1 7 16 16 24 29 23 17 15 9 1 2 1 2 0 3 3 4 2 2 3 2 2 5 6 5 5 6 3 5 9 8 5 4 3 4 5 10 12 6 2 1 1 3 6 5 4 6 2 4 2 2 3 3 9 12 11 11 10 9 8 8 7 7 7 5 6 9 7 7 6 3 5 12 16 16 14 15 13 12 14 15 15 16 17 17
30 12 3 11 19 23 30 28 19 13 9 4 0 2 1 1 1 2 2 3 1 1 3 2 1 3 5 4 4 5 3 4 7 6 5 5 4 4 4 7 12 9 3 2 1 2 5 4 2 2 3 1 3 3 4 2 7 10 10 11 11 10 8 5 5 5 4 5 7 9 6 4 2 5 4 5 10 14 16 18 17 15 13 12 12 14 15 16
25 7 3 15 23 29 31 24 16 8 5 3 1 3 2 2 1 1 1 2 2 1 1 1 3 2 2 2 3 6 4 3 5 3 3 5 4 5 4 4 10 10 6 3 2 2 3 3 4 6 2 4 3 5 4 3 5 5 10 12 10 9 9 7 5 3 3 7 6 6 8 7 5 10 10 7 7 10 14 16 18 17 14 13 12 13 15 16
24 9 4 17 28 32 27 19 12 4 2 1 3 3 2 2 2 2 2 3 1 1 0 0 2 1 2 2 2 6 5 3 4 3 1 2 2 4 3 3 7 9 8 5 2 1 2 5 6 6 2 2 4 8 7 8 5 3 7 9 7 8 10 8 7 5 6 9 5 5 10 10 7 7 8 12 12 11 12 14 17 16 14 14 14 14 16 17
19 10 3 16 33 31 20 14 8 2 1 3 5 5 2 2 4 5 5 4 1 1 1 1 1 0 0 1 1 4 4 2 3 3 1 0 1 3 2 2 5 8 9 6 2 1 3 6 4 1 3 5 6 6 8 9 10 7 5 4 6 9 10 8 7 8 9 9 6 6 9 9 9 6 4 11 16 15 12 12 14 14 14 15 15 15 17 17
11 5 1 18 36 27 14 10 6 2 2 4 5 4 2 2 5 8 8 4 1 1 1 1 1 1 1 1 1 2 3 2 2 2 1 1 1 3 3 2 4 7 10 7 3 2 3 4 2 2 2 7 4 4 7 8 11 10 8 5 7 7 7 9 8 7 7 8 7 7 8 8 9 7 7 10 14 17 15 11 11 13 14 14 14 15 16 15
5 1 1 23 37 22 10 9 7 4 4 4 3 2 2 3 5 8 9 6 2 1 1 1 1 1 2 1 0 1 2 1 1 1 0 1 0 3 4 2 4 7 9 6 3 3 2 3 4 2 5 7 3 3 3 2 3 5 5 6 7 5 4 7 8 8 8 7 6 6 7 7 5 5 9 12 11 14 16 12 9 11 14 15 15 14 14 15
4 0 3 27 35 17 8 9 7 5 3 4 3 3 3 5 5 8 10 8 5 3 3 2 2 1 2 1 1 0 1 1 1 1 2 1 1 1 2 2 4 7 7 5 2 2 2 2 4 5 5 6 2 2 3 2 2 2 2 2 3 3 4 7 9 10 9 9 7 6 7 6 3 3 7 12 12 12 14 14 11 11 13 15 15 15 15 14
4 1 7 29 32 13 6 7 3 3 3 3 3 2 3 5 5 7 9 8 6 5 4 4 4 2 1 0 0 1 1 2 2 2 2 2 1 1 2 3 3 5 5 4 3 4 4 3 4 6 6 8 11 9 7 7 6 4 4 2 2 3 3 5 6 5 7 10 9 7 9 7 3 3 5 9 9 8 9 10 11 11 12 13 14 16 16 15
4 1 8 27 25 7 4 6 3 3 4 2 2 2 3 4 6 7 8 8 6 4 4 4 3 2 2 2 1 1 1 2 2 2 1 2 2 1 3 4 2 3 4 4 3 4 4 4 4 6 6 9 12 8 4 5 5 4 3 1 1 1 1 3 5 2 3 7 8 8 9 7 4 4 6 10 8 7 8 7 9 9 7 8 11 13 14 14
3 2 5 22 25 11 5 4 3 4 4 3 5 6 5 5 7 7 7 7 7 4 3 3 3 2 3 4 2 1 2 2 1 1 0 1 1 1 3 4 1 3 3 3 3 4 3 3 3 4 4 5 6 4 3 4 3 2 1 2 1 1 3 4 4 2 3 6 8 9 8 5 3 4 6 12 10 8 9 8 8 8 7 5 6 7 9 10
4 1 3 12 21 16 7 3 3 4 4 4 6 8 7 4 5 7 6 6 7 6 3 2 3 3 4 5 2 2 3 2 2 1 0 2 1 0 2 4 2 1 2 4 5 4 4 3 3 5 5 5 5 4 2 1 0 1 1 2 2 1 3 3 1 3 4 4 7 9 5 4 3 2 6 12 11 10 10 6 6 7 8 7 5 5 6 7
2 2 2 4 8 9 5 4 4 3 3 3 4 6 7 5 4 5 5 4 7 8 4 2 3 3 5 6 4 4 4 3 3 3 3 4 3 1 1 4 4 3 4 6 6 3 3 5 6 9 9 8 5 1 1 4 5 4 4 4 3 1 1 1 1 3 1 3 5 5 2 6 7 4 6 9 9 10 10 6 5 5 5 5 5 5 7 8
1 2 4 4 3 4 4 4 5 4 2 2 2 4 7 6 4 4 4 4 7 8 4 4 6 5 6 7 5 4 4 4 5 6 6 6 5 3 2 3 4 6 7 6 3 2 4 5 8 11 13 14 13 11 8 7 8 8 9 10 7 3 3 4 5 4 3 4 5 2 5 6 5 2 4 5 5 7 9 7 4 3 4 4 5 5 6 9
2 1 2 2 2 4 5 5 7 6 4 3 2 3 6 7 7 6 4 3 5 6 3 2 6 7 6 6 4 4 5 6 5 5 4 5 5 6 5 4 5 6 7 4 1 2 5 7 8 11 15 16 16 16 12 9 10 10 11 13 12 9 7 7 9 10 7 5 6 7 10 7 4 6 10 12 10 10 11 10 8 6 6 6 6 7 8 9
2 2 2 2 1 2 3 4 5 6 6 4 4 5 6 7 8 6 4 4 4 5 4 3 5 7 7 4 2 3 4 6 6 5 4 5 7 7 6 6 4 4 5 4 3 2 4 6 8 10 14 16 17 17 14 12 12 12 12 14 14 11 10 10 10 11 11 11 10 12 16 13 7 7 11 13 12 11 11 10 9 8 7 7 7 8 10 10
2 2 2 2 2 1 1 2 3 3 4 4 3 4 5 6 7 6 5 5 5 4 4 6 8 9 7 4 3 4 5 6 8 8 7 7 8 6 4 5 4 2 4 4 3 3 4 5 7 8 10 13 15 15 15 14 14 14 14 13 13 12 12 11 10 8 8 10 11 13 15 12 6 6 10 11 10 9 9 8 9 8 8 9 9 9 10 12
2 1 1 1 2 3 3 3 3 2 3 4 4 4 4 5 7 7 6 3 3 4 5 8 9 8 6 6 6 8 8 8 10 12 11 10 10 7 5 5 5 4 5 5 4 4 5 6 7 6 7 10 10 10 12 12 12 14 15 13 13 12 9 7 3 3 3 3 6 8 8 5 5 9 11 10 8 8 8 8 8 8 9 11 11 11 11 12
3 2 1 1 2 3 4 4 3 2 3 4 5 5 4 5 6 7 5 2 2 4 4 6 8 7 7 8 8 8 8 10 12 13 12 12 13 12 10 11 12 10 8 8 6 5 6 6 6 5 7 9 8 7 7 8 9 11 11 12 14 12 7 4 2 5 5 3 4 5 3 5 9 11 11 9 8 8 8 8 8 8 10 11 11 13 13 13
Wind_Direction
10 7 2 359 358 357 357 355 352 353 354 353 352 352 351 351 349 346 344 339 331 320 313 312 312 313 310 310 309 307 304 294 289 253 243 265 271 250 245 228 179 165 152 150 149 146 151 161 154 153 156 155 173 182 189 205 199 189 199 228 237 226 230 232 230 334 356 146 154 168 180 159 147 156 140 140 142 138 148 127 118 105 80 124 134 145 153 154
9 6 4 2 0 359 358 356 354 354 353 351 352 351 350 350 348 346 341 336 330 320 313 311 311 313 311 312 310 304 301 289 272 253 262 293 305 270 237 221 177 163 154 153 155 153 157 165 158 155 160 160 175 175 180 189 193 199 201 226 233 215 209 244 275 314 338 142 159 174 188 179 158 154 159 163 153 149 148 130 123 107 104 121 135 147 153 155
9 7 6 4 1 360 358 357 354 354 353 351 351 350 350 350 349 347 340 334 329 321 314 311 311 313 313 318 312 311 305 288 275 255 307 0 339 299 231 208 181 167 163 165 165 161 160 160 157 154 159 166 174 178 183 185 191 203 212 231 236 231 243 265 266 280 316 136 169 179 184 191 165 154 172 171 159 167 169 152 146 137 134 139 145 151 155 159
9 8 7 4 1 360 358 356 354 353 352 351 351 349 349 348 348 348 341 335 330 324 318 314 313 312 316 331 321 327 303 257 305 310 342 348 337 317 219 195 181 175 171 167 164 158 147 146 153 151 154 169 170 175 190 192 184 193 208 228 228 216 238 246 259 269 276 224 190 181 180 188 171 165 178 163 159 187 195 178 165 153 147 149 152 155 159 163
9 8 6 4 1 359 358 356 354 353 352 351 350 348 348 346 347 348 343 337 334 328 324 319 316 317 325 346 350 351 293 212 37 354 346 332 324 325 204 182 176 178 169 159 155 144 140 142 149 150 155 166 165 177 199 198 197 208 218 233 235 226 248 278 27 290 329 210 200 185 185 178 164 180 186 174 177 199 199 185 163 151 151 155 157 159 163 166
9 7 6 3 1 359 357 356 355 354 351 350 349 347 346 344 345 346 343 337 334 329 328 331 327 328 340 4 34 41 276 224 5 354 360 349 323 337 182 171 173 175 164 155 151 144 145 147 154 158 168 167 176 188 192 195 206 229 231 237 238 252 264 283 296 296 341 304 219 194 187 163 166 194 195 193 201 130 155 164 151 149 153 155 158 162 166 169
9 7 5 3 1 359 356 355 355 354 351 350 350 347 343 342 342 341 340 336 332 326 325 349 2 340 353 32 67 78 277 279 345 2 8 5 340 280 166 165 171 170 161 155 154 154 152 160 171 164 166 170 189 199 180 189 208 236 248 247 241 250 256 269 287 291 311 292 258 206 184 177 186 197 193 202 213 99 133 145 143 147 152 154 160 167 169 169
8 6 4 2 0 358 355 354 354 353 352 351 350 345 340 339 339 337 337 334 328 320 316 60 50 3 3 49 303 293 273 238 344 2 3 8 5 155 157 161 171 166 161 163 162 165 160 167 177 162 177 182 181 194 181 183 209 231 242 256 245 249 257 267 279 285 294 288 264 196 194 198 195 184 186 206 199 133 138 138 142 147 151 158 164 168 170 170
8 6 3 1 360 357 355 353 353 354 354 351 349 342 336 336 335 336 336 331 325 314 303 101 86 67 24 79 290 299 267 175 23 357 358 8 17 154 156 162 170 165 162 169 166 168 166 175 180 168 186 183 172 189 187 190 210 224 233 256 259 256 268 276 280 280 286 285 240 201 212 207 191 175 197 206 182 141 140 141 146 151 157 163 166 168 170 172
7 5 2 1 359 357 356 353 353 356 355 352 348 338 333 333 333 336 335 328 327 336 96 90 92 89 123 163 238 304 358 166 341 353 2 12 54 159 167 169 170 167 163 168 171 174 178 181 174 155 171 177 183 188 188 200 214 211 230 251 259 267 274 276 277 273 278 276 243 227 236 212 183 192 209 186 166 146 142 148 152 156 163 166 168 168 171 174
6 4 2 0 358 357 355 354 355 357 355 351 343 334 329 329 333 337 336 336 34 74 61 77 59 176 156 162 237 273 335 310 313 352 9 17 161 168 182 178 172 170 164 168 179 181 184 173 155 140 166 167 179 190 198 214 259 244 240 257 257 267 270 266 267 265 265 262 237 228 245 216 177 205 216 166 158 154 148 154 159 163 166 168 170 169 172 176
6 4 1 359 357 356 355 354 356 355 354 348 340 333 328 329 338 342 344 32 61 27 22 15 320 188 158 150 219 261 329 323 323 5 13 10 198 193 203 187 179 178 169 170 182 182 181 168 165 172 171 147 163 186 220 217 240 249 259 274 270 278 273 260 255 252 242 243 221 210 243 217 191 216 208 161 159 160 154 158 164 166 167 169 171 171 175 176
5 4 0 358 357 356 355 355 355 355 353 348 341 333 329 334 348 354 31 47 15 354 349 312 235 173 165 191 227 303 345 353 8 5 5 5 227 210 221 191 182 190 185 172 169 174 173 175 183 185 166 164 165 123 271 208 215 233 244 260 277 286 274 258 241 232 229 233 181 180 246 227 210 217 186 158 163 163 160 165 168 169 168 171 174 174 177 178
5 3 359 358 357 357 357 356 356 357 355 350 340 332 334 349 4 35 56 15 358 352 14 84 145 160 234 238 241 353 358 357 346 344 350 357 28 158 186 182 174 173 185 171 158 169 167 177 193 202 194 229 188 328 293 189 194 217 226 238 253 262 257 242 218 209 213 208 169 188 253 248 224 202 171 162 167 167 168 171 170 171 170 172 176 178 179 181
4 2 358 357 357 359 359 358 359 0 1 352 339 336 347 7 27 80 31 2 360 16 81 111 135 170 287 235 320 356 356 348 334 333 338 334 275 156 162 173 166 137 146 150 168 179 168 162 186 212 210 250 280 255 240 187 191 204 211 223 220 233 254 248 218 207 214 190 174 196 244 250 235 185 167 168 171 173 173 174 173 174 174 174 177 179 182 185
3 1 358 356 357 0 0 1 3 4 5 354 343 351 2 14 74 88 12 0 8 54 115 130 121 218 313 359 340 341 349 340 329 328 328 313 277 185 158 165 161 137 125 107 156 174 176 170 178 214 223 228 232 227 218 220 217 201 213 227 202 208 243 249 223 222 225 203 182 202 235 260 228 171 168 170 176 178 176 176 176 176 176 176 178 180 183 185
3 0 358 357 358 1 2 4 6 7 9 358 350 11 13 23 120 95 1 2 14 109 237 204 184 212 227 4 347 337 335 328 327 329 332 326 256 155 142 154 160 150 129 95 134 157 170 183 171 203 220 229 222 205 215 220 211 197 212 226 206 208 232 239 233 228 220 216 204 208 232 253 201 157 172 175 179 182 180 179 178 178 178 178 179 181 184 186
2 360 358 358 360 3 5 8 9 9 13 6 356 19 22 31 142 2 352 355 341 206 251 227 251 193 236 347 345 323 318 319 327 338 352 9 155 152 138 146 155 151 144 119 135 150 168 185 185 200 207 215 213 204 211 214 207 203 202 212 211 216 231 232 223 194 196 214 216 210 226 243 217 159 178 182 181 187 187 182 180 179 179 179 181 185 187 189
2 0 359 359 1 6 8 12 14 10 16 16 7 12 25 29 210 309 348 353 5 175 345 317 353 70 286 323 323 312 314 316 338 360 14 49 137 150 133 138 150 155 160 162 162 160 166 174 188 206 209 209 208 207 211 207 207 214 209 216 218 217 232 233 229 252 227 219 223 219 227 239 224 183 185 188 187 193 191 179 180 181 180 182 185 188 190 194
3 1 359 360 3 7 9 15 18 13 18 24 27 27 22 20 339 324 349 350 37 18 330 298 316 247 296 315 314 325 332 326 1 17 13 41 144 141 122 133 147 159 174 175 166 156 172 183 197 210 213 205 201 204 214 231 329 226 211 220 227 226 234 230 226 250 262 251 235 227 234 240 236 208 192 191 192 196 191 181 182 184 184 186 188 191 194 197
2 1 359 0 4 6 11 19 20 19 20 28 38 56 40 18 360 339 340 327 288 300 281 265 257 251 289 297 305 332 348 318 349 18 12 25 153 152 135 146 151 170 183 165 138 134 180 206 214 214 207 184 189 198 209 223 233 242 218 219 226 226 238 247 249 263 257 258 249 236 244 244 241 225 199 187 193 199 195 188 186 188 189 190 191 194 196 194
2 1 359 360 6 7 12 23 21 22 22 29 42 62 78 26 342 283 296 305 298 300 265 274 257 260 291 281 309 340 305 319 350 14 11 18 142 159 156 171 176 175 167 153 140 154 194 223 222 204 171 167 193 198 203 217 229 239 237 231 232 214 244 265 257 254 245 251 255 247 254 254 249 233 205 190 196 204 202 195 190 189 189 192 194 194 191 187
1 1 358 359 7 5 7 25 19 19 26 32 48 62 47 359 331 264 225 281 300 294 273 301 289 320 327 349 6 345 326 14 359 2 3 9 43 8 193 192 192 166 164 176 181 181 197 231 221 176 157 191 199 195 202 211 225 234 235 234 231 200 226 243 213 186 241 251 265 269 265 262 257 234 208 200 203 205 206 204 198 192 191 194 195 191 188 186
360 0 357 356 2 3 5 16 12 15 18 35 65 37 352 338 333 221 198 248 301 291 288 317 304 338 341 345 341 334 336 63 340 348 353 1 11 333 240 196 196 185 182 193 197 200 205 219 179 165 171 197 202 196 201 208 219 227 232 236 233 221 231 247 301 337 284 251 252 264 269 261 243 233 220 205 208 210 208 206 205 203 201 196 191 190 192 191
358 359 356 352 357 4 7 3 9 5 356 44 61 347 336 336 330 191 205 235 241 248 224 285 316 4 336 324 336 336 258 178 349 333 339 353 349 290 224 175 206 209 189 193 206 217 221 154 138 169 183 196 204 205 202 205 218 223 227 233 237 240 240 255 279 292 282 247 223 223 253 254 218 226 228 198 201 213 209 204 208 208 201 196 194 194 195 195
355 357 355 349 352 2 12 52 360 354 350 43 340 332 333 339 263 182 201 272 156 123 60 337 343 4 351 336 338 327 197 117 339 320 342 355 342 262 234 170 198 222 187 184 215 234 223 194 158 178 194 196 203 212 203 200 218 231 221 221 228 240 243 248 257 260 258 257 249 221 249 258 211 220 223 196 197 209 206 206 211 207 198 201 202 198 195 196
352 355 353 347 350 3 20 309 341 356 3 318 330 333 335 336 190 176 218 255 152 75 7 352 339 358 1 344 337 337 164 332 319 330 359 351 341 245 233 187 179 211 165 166 224 216 197 202 183 185 204 204 206 214 199 192 214 234 195 187 208 227 234 239 245 246 255 279 283 256 248 268 255 227 209 199 205 210 205 208 213 207 202 206 206 202 199 198
350 353 351 346 349 4 16 340 336 357 332 323 332 335 332 331 163 171 269 254 196 53 26 9 342 349 347 336 358 40 56 333 327 345 345 340 348 210 230 229 221 216 168 186 222 169 174 206 193 185 207 219 215 217 197 192 215 231 162 170 200 218 227 233 240 245 255 271 265 244 223 255 257 223 168 198 212 216 209 210 212 206 205 207 207 206 202 199
348 352 350 347 354 3 358 348 330 331 332 333 338 337 333 150 161 189 303 227 103 87 63 356 359 345 333 328 18 33 10 1 17 322 328 341 9 7 214 13 337 267 216 215 230 199 184 217 195 189 209 222 217 221 201 196 214 213 163 186 210 218 221 224 231 241 247 248 252 238 206 234 260 233 191 197 211 216 211 213 215 208 208 209 207 208 203 198
346 351 352 355 9 360 349 340 328 334 336 339 342 342 130 150 189 236 183 215 44 78 24 2 8 330 342 3 25 15 10 19 355 322 334 358 10 19 83 62 358 295 240 213 227 243 286 266 209 200 217 217 210 216 206 205 211 191 182 206 212 213 215 220 224 227 238 241 244 238 215 222 259 246 210 204 201 200 201 211 215 210 212 213 211 211 205 199
346 350 356 10 12 359 352 334 331 336 336 340 346 4 148 146 269 197 174 200 55 59 67 31 22 353 21 40 31 3 5 12 356 355 12 11 16 27 31 23 358 315 225 209 214 230 271 246 208 198 220 209 208 212 204 209 211 198 201 212 208 200 195 212 211 207 232 241 234 230 218 221 245 243 213 203 183 187 203 209 209 208 212 213 212 212 206 201
345 349 359 26 8 359 350 332 331 333 332 339 348 129 166 287 221 202 359 159 166 24 59 39 25 27 31 44 33 3 353 5 4 11 27 29 43 40 38 31 354 281 207 213 206 181 242 229 195 201 211 198 214 212 195 203 210 209 209 206 208 208 195 211 209 207 231 239 225 218 212 222 245 252 232 220 196 201 213 213 206 205 208 211 211 210 206 203
345 348 353 25 5 353 342 337 333 326 325 336 345 161 236 230 212 16 20 31 24 26 54 67 47 42 29 44 27 359 354 19 6 6 22 33 58 63 57 37 12 309 227 339 278 226 218 201 198 209 195 32 251 214 201 200 201 205 205 201 206 204 205 217 216 222 233 235 227 207 206 233 253 255 229 226 228 221 220 223 214 205 206 208 208 208 205 202
345 350 37 19 1 349 341 338 333 321 318 327 253 171 188 211 47 40 32 22 25 34 41 64 54 46 49 54 24 356 16 44 18 12 17 20 44 51 43 27 20 9 333 317 280 239 224 213 203 200 197 1 342 227 269 235 202 205 203 206 212 207 213 218 214 226 235 237 212 186 191 226 231 236 207 219 230 224 218 224 220 211 209 206 205 206 205 203
346 359 84 13 357 348 344 338 330 318 300 301 256 150 167 174 73 57 27 7 325 22 51 66 30 52 56 45 27 18 19 26 22 23 34 40 38 30 22 14 16 15 351 285 20 350 257 246 48 13 292 337 45 4 326 275 218 206 195 208 218 212 215 222 228 236 241 254 223 192 212 244 252 303 291 230 235 226 217 217 215 214 209 202 206 206 204 205
353 19 39 5 355 347 346 340 330 314 251 243 82 101 97 89 65 346 14 337 288 54 89 92 50 57 51 29 21 24 16 359 6 13 54 56 53 46 44 22 16 17 17 349 339 359 269 267 7 345 264 142 43 331 291 247 238 200 198 214 215 203 211 228 240 235 233 252 234 198 233 250 270 279 256 220 234 232 221 217 215 215 201 192 204 206 204 205
353 360 353 359 352 347 347 344 338 326 211 175 100 100 89 91 35 351 355 322 269 102 128 295 43 24 27 40 24 15 5 340 357 360 40 58 69 60 58 43 24 14 12 359 312 30 315 286 317 322 236 152 336 305 262 239 234 208 207 204 183 193 212 227 237 221 221 240 227 193 231 239 235 252 225 202 217 229 220 216 219 215 196 194 205 205 204 203
342 335 338 354 349 348 350 352 358 30 88 71 98 90 55 65 38 12 351 330 277 111 131 150 49 40 62 15 32 17 349 330 10 5 354 6 86 72 58 36 24 6 357 345 288 32 339 294 295 268 257 310 326 285 246 217 201 221 251 199 178 205 210 206 222 227 225 237 235 210 227 239 232 235 222 204 212 223 220 213 218 210 195 202 210 206 205 203
341 328 12 350 348 351 356 3 24 61 65 71 93 81 31 15 31 9 349 338 289 50 111 156 36 88 126 8 27 28 353 354 8 329 333 3 67 90 77 30 13 1 350 339 308 324 330 287 261 113 330 319 316 235 232 205 191 217 253 240 215 222 214 204 212 226 229 236 242 221 217 237 236 230 243 227 213 218 219 213 216 207 196 202 208 206 204 200
357 335 34 349 349 354 13 38 53 47 60 73 70 63 21 5 14 2 356 3 26 23 43 129 107 115 110 55 332 3 3 3 315 276 232 3 69 105 85 49 13 359 343 330 310 309 311 257 256 323 330 297 259 178 196 152 154 204 235 239 229 224 219 216 216 218 226 234 236 227 225 237 229 202 231 241 225 217 217 216 216 204 198 203 205 205 201 196
339 120 360 351 351 356 28 54 51 28 70 79 53 49 20 14 8 358 3 15 35 43 34 68 81 81 116 132 169 21 319 288 268 244 234 234 219 93 84 75 24 2 343 329 326 320 316 269 270 296 305 275 245 77 54 27 358 293 253 253 259 255 236 226 220 211 219 234 231 233 245 247 218 174 220 233 228 220 215 214 218 208 200 204 205 203 198 194
347 55 348 352 356 5 47 63 47 25 75 57 23 12 353 11 11 360 7 16 33 40 31 58 66 58 96 207 250 140 300 282 226 250 256 200 228 309 113 112 41 8 348 326 326 328 311 282 277 275 269 271 277 287 291 277 264 247 238 257 309 301 268 241 236 214 220 230 227 235 252 252 216 183 235 242 238 243 235 222 224 218 202 201 205 203 199 196
10 338 340 357 5 20 67 64 58 43 60 30 7 20 9 26 22 13 20 21 23 18 22 56 49 44 71 3 305 187 315 295 230 247 255 204 248 303 140 129 56 360 349 334 336 338 305 262 265 270 267 276 273 270 269 247 213 186 202 245 283 289 340 288 278 318 271 232 220 227 241 250 222 185 244 259 254 264 276 265 249 244 225 206 206 204 200 198
346 268 317 5 23 51 76 58 55 56 55 32 38 43 40 46 31 19 25 28 21 2 6 44 31 32 37 353 322 311 337 314 245 238 234 251 290 98 154 146 94 347 353 353 351 347 314 264 260 270 261 249 235 199 150 160 160 148 150 137 145 12 345 293 257 260 271 239 228 231 234 244 231 169 223 250 253 255 258 257 253 258 265 251 230 217 207 201
322 235 252 2 30 52 73 61 52 70 57 40 51 41 28 44 38 18 20 34 25 2 347 24 28 46 27 354 345 4 342 305 284 316 275 284 316 105 201 185 191 312 331 322 319 313 292 279 268 257 241 223 207 182 170 166 67 351 160 170 199 346 347 315 257 218 235 242 241 241 238 242 236 164 209 236 249 258 252 238 230 239 247 248 245 233 218 210
327 28 331 339 26 50 78 73 47 62 52 34 57 41 24 34 37 14 19 37 22 7 3 20 18 36 22 5 357 347 334 308 307 314 296 288 293 317 249 204 217 263 284 299 308 302 279 270 262 260 259 266 284 297 324 331 318 291 288 281 253 214 267 295 230 220 277 317 253 238 276 270 249 210 212 228 242 260 264 254 234 235 242 240 236 227 214 207
24 36 1 342 355 26 52 53 35 40 38 9 39 35 29 35 30 15 24 31 12 1 6 54 46 37 21 9 355 332 331 326 312 301 290 288 292 298 286 242 248 271 280 288 297 291 275 264 262 265 266 272 284 289 292 300 292 283 288 287 277 262 245 224 224 247 337 313 254 301 357 294 266 262 284 297 301 291 293 297 293 305 311 301 297 279 242 218
33 89 14 334 346 24 27 16 12 17 20 30 53 34 27 34 31 20 17 11 7 4 360 60 49 33 21 13 349 315 320 313 295 286 291 300 306 309 306 288 273 277 278 270 244 264 270 268 269 270 271 271 275 280 282 278 272 271 272 275 280 279 254 234 240 252 261 249 259 311 312 289 301 335 328 330 329 316 313 315 321 327 321 315 308 293 272 243
38 86 47 358 25 40 13 351 351 5 17 24 44 38 23 25 25 16 359 332 348 15 14 349 358 1 1 5 335 287 297 300 293 294 309 310 306 307 306 295 284 276 266 254 237 240 259 270 269 267 272 273 271 272 272 267 265 265 264 265 271 272 260 252 254 255 250 239 242 268 279 278 287 312 321 322 317 317 316 317 328 333 330 328 309 288 279 264
40 50 22 3 22 29 5 1 354 7 29 22 30 38 22 17 19 6 344 323 320 351 5 341 338 339 334 331 301 264 261 277 285 284 286 291 291 285 275 274 269 237 237 243 237 226 235 266 285 287 281 275 273 270 263 255 256 259 261 260 260 263 259 252 256 270 266 247 239 249 264 274 294 325 325 312 307 315 315 319 335 337 332 329 311 293 282 271
30 19 17 4 23 24 23 28 7 3 37 28 22 24 5 4 11 354 335 319 293 305 335 331 327 326 315 300 282 270 265 264 267 267 266 267 269 265 253 250 245 235 236 234 225 219 227 261 291 294 280 276 281 278 260 247 246 252 254 250 249 252 246 231 244 339 341 277 252 247 252 275 335 338 324 309 305 313 316 326 335 330 325 320 306 296 287 274
14 23 63 61 32 24 11 10 11 18 34 18 5 8 354 348 2 355 348 356 277 276 295 308 309 311 301 289 284 285 285 277 273 274 272 264 260 258 254 246 242 244 246 241 236 225 225 253 278 269 268 274 277 287 279 247 236 248 245 229 227 228 214 176 94 29 14 325 255 242 268 336 339 328 320 311 306 307 314 325 326 321 318 309 298 295 289 280